When you browse on this site, cookies collect data to enhance your experience and personalize the content and advertising you see.
Visit our Privacy Policy to learn more. By continuing to use the site, you agree to this use of cookies and data.
  • In Spain
  • List of Countries
  • For 7 days
  • Water Temperature
  • Satellite Maps
  • Weather Map
  • Weather Widgets
  • user-avatar
    Login

    Hourly Weather Mundu

    Today, 17 June, Monday

    Time Temperature Precipitation Wind Pressure Humidity
    00:00 +28°C° 0 mm 2 mps 724 mmHg 73%
    01:00 +27°C° 0 mm 2 mps 724 mmHg 75%
    02:00 +27°C° 0.1 mm 2 mps 724 mmHg 78%
    03:00 +26°C° 0.1 mm 2 mps 724 mmHg 81%
    04:00 +25°C° 0.1 mm 2 mps 724 mmHg 84%
    05:00 +26°C° 0 mm 2 mps 724 mmHg 83%
    06:00 +26°C° 0 mm 2 mps 725 mmHg 82%
    07:00 +26°C° 0 mm 2 mps 725 mmHg 80%
    08:00 +28°C° 0 mm 2 mps 725 mmHg 72%
    09:00 +31°C° 0 mm 2 mps 725 mmHg 63%
    10:00 +34°C° 0 mm 2 mps 726 mmHg 55%
    11:00 +34°C° 0 mm 1 mps 725 mmHg 51%
    12:00 +36°C° 0 mm 1 mps 725 mmHg 47%
    13:00 +37°C° 0 mm 1 mps 724 mmHg 43%
    14:00 +37°C° 0 mm 1 mps 724 mmHg 43%
    15:00 +34°C° 0 mm 0 mps 723 mmHg 44%
    16:00 +34°C° 0 mm 0 mps 723 mmHg 44%
    17:00 +34°C° 0 mm 1 mps 723 mmHg 50%
    18:00 +32°C° 0 mm 1 mps 723 mmHg 55%
    19:00 +30°C° 0 mm 1 mps 724 mmHg 60%
    20:00 +30°C° 0 mm 2 mps 724 mmHg 64%
    21:00 +29°C° 0 mm 2 mps 725 mmHg 68%
    22:00 +28°C° 0 mm 2 mps 725 mmHg 72%
    23:00 +28°C° 0 mm 2 mps 725 mmHg 73%

    Tomorrow, 18 June, Tuesday

    Time Temperature Precipitation Wind Pressure Humidity
    00:00 +27°C° 0 mm 3 mps 725 mmHg 74%
    01:00 +27°C° 0 mm 3 mps 725 mmHg 75%
    02:00 +27°C° 0 mm 3 mps 725 mmHg 75%
    03:00 +26°C° 0 mm 2 mps 725 mmHg 74%
    04:00 +26°C° 0 mm 2 mps 724 mmHg 74%
    05:00 +26°C° 0 mm 2 mps 725 mmHg 73%
    06:00 +26°C° 0 mm 2 mps 725 mmHg 73%
    07:00 +27°C° 0 mm 2 mps 725 mmHg 72%
    08:00 +29°C° 0 mm 2 mps 726 mmHg 64%
    09:00 +31°C° 0 mm 2 mps 726 mmHg 56%
    10:00 +34°C° 0 mm 2 mps 727 mmHg 48%
    11:00 +36°C° 0 mm 2 mps 726 mmHg 45%
    12:00 +37°C° 0 mm 2 mps 725 mmHg 41%
    13:00 +38°C° 0 mm 2 mps 725 mmHg 38%
    14:00 +38°C° 0 mm 2 mps 724 mmHg 39%
    15:00 +37°C° 0 mm 2 mps 724 mmHg 39%
    16:00 +37°C° 0 mm 2 mps 723 mmHg 40%
    17:00 +35°C° 0 mm 2 mps 723 mmHg 46%
    18:00 +32°C° 0 mm 2 mps 723 mmHg 51%
    19:00 +30°C° 0 mm 1 mps 724 mmHg 57%
    20:00 +30°C° 0.1 mm 2 mps 724 mmHg 61%
    21:00 +29°C° 0.1 mm 2 mps 724 mmHg 65%
    22:00 +28°C° 0.1 mm 2 mps 725 mmHg 68%
    23:00 +28°C° 0 mm 2 mps 725 mmHg 70%

    Day after tomorrow, 19 June, Wednesday

    Time Temperature Precipitation Wind Pressure Humidity
    00:00 +27°C° 0 mm 1 mps 724 mmHg 71%
    01:00 +27°C° 0 mm 1 mps 724 mmHg 73%
    02:00 +27°C° 0 mm 1 mps 724 mmHg 75%
    03:00 +26°C° 0 mm 1 mps 724 mmHg 78%
    04:00 +26°C° 0 mm 2 mps 724 mmHg 80%
    05:00 +26°C° 0 mm 2 mps 724 mmHg 79%
    06:00 +27°C° 0 mm 2 mps 725 mmHg 78%
    07:00 +27°C° 0 mm 2 mps 725 mmHg 77%
    08:00 +29°C° 0 mm 2 mps 725 mmHg 69%
    09:00 +31°C° 0 mm 2 mps 725 mmHg 60%
    10:00 +35°C° 0 mm 2 mps 726 mmHg 52%
    11:00 +35°C° 0 mm 1 mps 725 mmHg 47%
    12:00 +37°C° 0 mm 1 mps 724 mmHg 42%
    13:00 +40°C° 0 mm 1 mps 724 mmHg 38%
    14:00 +39°C° 0 mm 1 mps 723 mmHg 39%
    15:00 +39°C° 0 mm 1 mps 723 mmHg 39%
    16:00 +37°C° 0 mm 1 mps 722 mmHg 40%
    17:00 +35°C° 0 mm 1 mps 722 mmHg 45%
    18:00 +34°C° 0 mm 1 mps 723 mmHg 50%
    19:00 +32°C° 0 mm 1 mps 723 mmHg 54%
    20:00 +31°C° 0.2 mm 1 mps 723 mmHg 59%
    21:00 +30°C° 0.2 mm 1 mps 724 mmHg 65%
    22:00 +29°C° 0.2 mm 1 mps 724 mmHg 70%
    23:00 +29°C° 0.1 mm 1 mps 724 mmHg 72%

    20 June, Thursday

    Time Temperature Precipitation Wind Pressure Humidity
    00:00 +28°C° 0.1 mm 1 mps 724 mmHg 74%
    01:00 +28°C° 0.1 mm 1 mps 724 mmHg 77%
    02:00 +27°C° 0.2 mm 1 mps 724 mmHg 80%
    03:00 +27°C° 0.2 mm 1 mps 724 mmHg 84%
    04:00 +26°C° 0.2 mm 1 mps 724 mmHg 87%
    05:00 +26°C° 0.3 mm 1 mps 724 mmHg 87%
    06:00 +26°C° 0.3 mm 1 mps 725 mmHg 86%
    07:00 +27°C° 0.3 mm 1 mps 725 mmHg 86%
    08:00 +29°C° 0 mm 1 mps 725 mmHg 77%
    09:00 +31°C° 0 mm 2 mps 725 mmHg 68%
    10:00 +34°C° 0 mm 2 mps 725 mmHg 59%
    11:00 +35°C° 0 mm 2 mps 725 mmHg 53%
    12:00 +37°C° 0 mm 2 mps 724 mmHg 47%
    13:00 +38°C° 0 mm 2 mps 723 mmHg 42%
    14:00 +38°C° 0 mm 2 mps 723 mmHg 41%
    15:00 +38°C° 0 mm 2 mps 723 mmHg 40%
    16:00 +38°C° 0 mm 2 mps 722 mmHg 38%
    17:00 +35°C° 0 mm 1 mps 722 mmHg 45%
    18:00 +33°C° 0 mm 1 mps 722 mmHg 52%
    19:00 +31°C° 0 mm 1 mps 722 mmHg 58%
    20:00 +31°C° 0 mm 1 mps 723 mmHg 61%
    21:00 +30°C° 0 mm 2 mps 724 mmHg 64%
    22:00 +29°C° 0 mm 2 mps 724 mmHg 67%
    23:00 +28°C° 0.5 mm 2 mps 724 mmHg 74%

    21 June, Friday

    Time Temperature Precipitation Wind Pressure Humidity
    00:00 +27°C° 0.5 mm 2 mps 724 mmHg 80%
    01:00 +26°C° 0.5 mm 2 mps 724 mmHg 87%
    02:00 +26°C° 0.2 mm 2 mps 724 mmHg 89%
    03:00 +26°C° 0.2 mm 1 mps 724 mmHg 90%
    04:00 +25°C° 0.2 mm 1 mps 724 mmHg 92%
    05:00 +25°C° 1.8 mm 1 mps 725 mmHg 92%
    06:00 +25°C° 1.8 mm 1 mps 725 mmHg 91%
    07:00 +26°C° 1.8 mm 1 mps 726 mmHg 91%
    08:00 +26°C° 0.3 mm 2 mps 726 mmHg 86%
    09:00 +26°C° 0.3 mm 3 mps 727 mmHg 82%
    10:00 +27°C° 0.3 mm 3 mps 727 mmHg 78%
    11:00 +28°C° 0.1 mm 3 mps 726 mmHg 74%
    12:00 +29°C° 0.1 mm 3 mps 726 mmHg 71%
    13:00 +29°C° 0.1 mm 3 mps 725 mmHg 67%
    14:00 +30°C° 0 mm 3 mps 724 mmHg 66%
    15:00 +30°C° 0 mm 3 mps 723 mmHg 65%
    16:00 +31°C° 0 mm 3 mps 722 mmHg 64%
    17:00 +29°C° 0 mm 2 mps 723 mmHg 69%
    18:00 +28°C° 0 mm 2 mps 723 mmHg 74%
    19:00 +27°C° 0 mm 1 mps 723 mmHg 79%
    20:00 +26°C° 0 mm 1 mps 724 mmHg 80%
    21:00 +26°C° 0 mm 1 mps 724 mmHg 81%
    22:00 +25°C° 0 mm 1 mps 725 mmHg 83%
    23:00 +25°C° 0 mm 1 mps 724 mmHg 84%

    22 June, Saturday

    Time Temperature Precipitation Wind Pressure Humidity
    00:00 +25°C° 0 mm 1 mps 724 mmHg 85%
    01:00 +25°C° 0 mm 1 mps 724 mmHg 87%
    02:00 +24°C° 0 mm 1 mps 724 mmHg 88%
    03:00 +24°C° 0 mm 1 mps 724 mmHg 90%
    04:00 +24°C° 0 mm 1 mps 724 mmHg 91%
    05:00 +24°C° 0 mm 1 mps 725 mmHg 89%
    06:00 +25°C° 0 mm 1 mps 725 mmHg 87%
    07:00 +25°C° 0 mm 1 mps 725 mmHg 85%
    08:00 +28°C° 0 mm 1 mps 726 mmHg 76%
    09:00 +30°C° 0 mm 1 mps 726 mmHg 67%
    10:00 +32°C° 0 mm 1 mps 727 mmHg 58%
    11:00 +33°C° 0 mm 1 mps 726 mmHg 53%
    12:00 +35°C° 0 mm 1 mps 725 mmHg 49%
    13:00 +36°C° 0 mm 1 mps 724 mmHg 44%
    14:00 +36°C° 0 mm 1 mps 724 mmHg 44%
    15:00 +35°C° 0 mm 1 mps 723 mmHg 45%
    16:00 +35°C° 0 mm 1 mps 722 mmHg 45%
    17:00 +33°C° 0 mm 1 mps 722 mmHg 51%
    18:00 +31°C° 0 mm 1 mps 722 mmHg 58%
    19:00 +30°C° 0 mm 1 mps 723 mmHg 64%
    20:00 +29°C° 0 mm 1 mps 723 mmHg 65%
    21:00 +29°C° 0 mm 1 mps 723 mmHg 66%
    22:00 +26°C° 0 mm 0 mps 724 mmHg 67%
    23:00 +28°C° 0.1 mm 1 mps 724 mmHg 71%
    Show more